Location: Casteau
(50.5142°N, 4.0161°E)
Time: 05:40:20
(UTC+00:00)

USA 234 - Pass Details

Date: 18 September 2020
Orbit: 1102 x 1106 km, 123.0° (Epoch: 16 October)

Event Time Altitude Azimuth Distance (km) Brightness Sun altitude
Rises 23:42:48 0° 79° (E) 3,921 6.3 -38.1°
Reaches altitude 10° 23:45:20 10° 75° (ENE) 2,964 5.6 -38.1°
Enters shadow 23:50:38 47° 30° (NNE) 1,426 4.0 -38.0°
Exits shadow 23:54:28 31° 306° (NW) 1,821 4.5 -38.0°
Drops below altitude 10° 23:57:53 10° 289° (WNW) 2,967 5.6 -37.9°
Sets 00:00:26 0° 285° (WNW) 3,925 6.2 -37.9°
